STARLINK-1327, 45555

Orbit data source: Space-Track

STARLINK-1327, 45555 is a payload satellite owned by SpaceX/Seattle (US) in LEO that was launched on Wed, 22 Apr 2020 UTC via an FALCON 9 launch vehicle from the Air Force Eastern Test Range (AFETR). Payload-class satellites include a variety of spacecraft equipped with specific instruments for various scientific and technological missions. These include communications satellites like Starlink; space stations such as the ISS; scientific satellites like the Hubble; Earth observation satellites from companies like Planet Labs, Umbra, and HawkEye 360; GPS; miniature CubeSats for education and research; and military/defense satellites.

Loading next visibility...
Identifier
45555, 2020-025AA
Orbit
LEO
Country
Flag of USUS
Related business
Manufacturer
SpaceX/Seattle
Mission
Operational Commercial Communications
Bus & Motor
STARLINK, Unknown motor
Mass
260 kg wet, ~248 kg dry
Launch date (UTC)
2020-04-22 (5 years ago)
Launch vehicle
FALCON 9
Launch site
Air Force Eastern Test Range (AFETR)
Object type
Payload
Rocket body
Debris
Shape & HBR
Box + 1 Pan, 10.1 m
Radar Cross Section
13.562 m², Large (>1 m²)

Expand to show TLE details & history
Last TLE update: 15 hours ago

TLE from 15 hours ago
0 STARLINK-1327
1 45555U 20025AA  25293.47891566 -.00001360  00000-0 -72481-4 0  9998
2 45555  53.0558 356.0487 0002099 124.0403 236.0786 15.06369399304234
Epoch: 2025-10-20T11:29Z
TLE epoch observation values (Epoch: 2025-10-20T11:29:38.313Z)
Latitude
0.00004°
Longitude
154.45845°
Altitude
548.996 km
Speed
7.588 km/s
True Right ascension
23h 44m 11s
True Declination
0° 00' 00"
Sunlit
Object was in full shadow at epoch
Visualization orbit readout
Latitude
Unknown
Longitude
Unknown
Altitude
Unknown
Speed
Unknown
Apparent Right ascension
Unknown
Apparent Declination
Unknown
Sunlit
N/A
Visualization observer readout
Local Sidereal Time
21:08:19
Azimuth
Unknown
Elevation
Unknown
Doppler factor
Unknown
Orbital elements
Apogee altitude
549.03 km
Perigee altitude
546.122 km
Semi-major axis
6,925.713 km
Eccentricity
0.00021
Inclination
53.0558°
RAAN
356.0487°
Arg. of periapsis
124.0403°
True anomaly
236.05864°
Mean anomaly
236.0786°
Eccentric anomaly
236.06862°
Mean motion
3.76571 °/min
Orbital period
95.6 mins
BSTAR
-0.000072481
Loading maneuver chart data...
Computing Atmospheric mass density...

Documentation

Showing up to 5 results
|